Location: Great Malvern
(52.1167°N, 2.3167°W)
Time: 15:57:20
(UTC+00:00)

Cosmos 2180 Rocket - Pass Details

Date: 18 September 2020
Orbit: 954 x 1004 km, 82.9° (Epoch: 21 October)

Event Time Altitude Azimuth Distance (km) Brightness Sun altitude
Exits shadow 21:50:40 78° 226° (SW) 1,012 4.4 -29.7°
Maximum altitude 21:51:04 83° 281° (W) 1,000 4.4 -29.7°
Drops below altitude 10° 21:57:27 10° 9° (N) 2,770 7.4 -30.3°
Sets 22:00:00 0° 11° (N) 3,730 8.1 -30.5°
